Regional Weather Roundup
Issued by NWS

Home | Current Version | Previous Version | Graphics & Text | Print | Product List | Glossary On
Versions: 1 2 3 4 5 6 7 8 9 10 11 12 13 14 15 16 17 18 19 20 21 22 23 24 25 26 27 28 29 30 31 32 33 34 35 36 37 38 39 40 41 42 43 44 45 46 47 48 49 50
000
ASUS43 KLMK 221010
RWRKY
KENTUCKY REGIONAL WEATHER ROUNDUP
NATIONAL WEATHER SERVICE LOUISVILLE KY
600 AM EDT FRI AUG 22 2014

NOTE "FAIR" INDICATES FEW OR NO CLOUDS BELOW 12,000 FEET
WITH NO SIGNIFICANT WEATHER AND/OR OBSTRUCTIONS TO VISIBILITY.

KYZ001>023-026-027-061>063-070>075-221100-
WESTERN AND SOUTH CENTRAL KENTUCKY

CITY           SKY/WX    TMP DP  RH WIND       PRES   REMARKS
PADUCAH        CLEAR     77  73  87 SW6       29.99S
HENDERSON      PTCLDY    75  72  88 SW6       29.97R
OWENSBORO      PTCLDY    75  73  93 SW6       29.99S
HOPKINSVILLE   CLEAR     75  75 100 S6        30.02F
BOWLING GREEN  PTCLDY    76  71  85 SW5       30.02F
GLASGOW        MOCLDY    74  73  96 CALM      30.03S
$$

KYZ024-025-028>034-038-045-046-053-221100-
NORTH CENTRAL KENTUCKY

CITY           SKY/WX    TMP DP  RH WIND       PRES   REMARKS
LOUISVILLE/SDF PTCLDY    79  72  79 SW7       29.99R
LOUISVILLE/LOU CLEAR     75  71  87 CALM      29.99S
FORT KNOX      PTCLDY    74  74 100 SW3       30.00S
$$

KYZ035>037-039>044-047>052-055>060-089>105-221100-
NORTHEAST KENTUCKY

CITY           SKY/WX    TMP DP  RH WIND       PRES   REMARKS
LEXINGTON      PTCLDY    75  71  87 S7        30.03F
COVINGTON      CLOUDY    70  68  93 S7        29.99F FOG
FRANKFORT      CLEAR     72  70  93 S3        30.01S
$$

KYZ054-064>069-076>088-106>120-221100-
SOUTHEAST KENTUCKY

CITY           SKY/WX    TMP DP  RH WIND       PRES   REMARKS
JACKSON        MOCLDY    72  69  90 CALM      30.07S
LONDON         PTCLDY    72  68  87 S3        30.09R
SOMERSET       PTCLDY    70  70 100 CALM      30.07S
MIDDLESBORO    FOG       69  69 100 CALM      30.10R VSB 1/4
MONTICELLO     PTSUNNY   69  69 100 CALM      30.08R
$$




USA.gov is the U.S. government's official web portal to all federal, state and local government web resources and services.